Погода в Бурге

Германия     52°16′04″N   11°50′53″E
темп.,
°C
ветер,
м/с
пор.,
м/с
влажн.,
%
обл.,
%
осадки,
мм/ч
давл.,
гПа
погр.,
м
6 мая, чт
чт623:00+5з815685 0.0 10061060
02:00+4зюз715744 0.0 1007832
05:00+3зюз512788 0.0 1007462
08:00+5зюз5973100 0.0 1007656
11:00+3зсз489345 0.7 1008418
14:00+9з675986 0.8 10071689
17:00+10зюз4653100 0.0 10051613
20:00+8ююз2268100 0.0 100427
7 мая, пт
пт723:00+6ююв1165100 0.0 100410
02:00+5з1173100 0.1 100415
05:00+4з3590100 0.8 1004175
08:00+3зсз5997100 4.2 1007531
11:00+4зсз5895100 0.2 1010721
14:00+8зсз796865 1.1 10111669
17:00+9зсз71062100 0.8 10121680
20:00+6з37825 1.4 1014193
8 мая, сб
сб823:00+3з399213 0.0 1017167
02:00+2зюз410954 0.0 1018206
05:00+1зюз39955 0.0 1019169
08:00+5з368531 0.0 1020316
11:00+10юз346094 0.0 10191250
14:00+12юз344750 0.0 10181772
17:00+14ю2444100 0.0 10161924
20:00+10ююв4967100 0.0 1015223
9 мая, вс
вс923:00+9ююв4116099 0.0 1014259
02:00+10ююв4116297 0.1 1012265
05:00+8ю5107589 0.0 1011175
08:00+11ю51177100 0.0 1010251
11:00+18ю686593 0.0 1010495
14:00+21ю7859100 0.0 1009894
17:00+22ююв6963100 0.0 10071051
20:00+18юв51377100 0.0 1006326
10 мая, пн
пн1023:00+15ююв51480100 0.0 1007282
02:00+12ююв410885 0.0 1007170
05:00+10юв489392 0.0 1006127
08:00+14ююв487897 0.0 1005231
11:00+20ю576787 0.0 1007438
14:00+25зюз7115659 0.0 10072016
17:00+19зсз5767100 0.1 1010756
20:00+16ссз2377100 0.1 101046